Regional Weather Roundup
Issued by NWS

Home | Current Version | Previous Version | Graphics & Text | Print | Product List | Glossary On
Versions: 1 2 3 4 5 6 7 8 9 10 11 12 13 14 15 16 17 18 19 20 21 22 23 24 25 26 27 28
000
ASUS45 KBOI 291110
RWRID

IDAHO REGIONAL WEATHER ROUNDUP
NATIONAL WEATHER SERVICE BOISE ID
500 AM MDT MON MAY 29 2017

NOTE: "FAIR" INDICATES FEW OR NO CLOUDS BELOW 12000 FEET
WITH NO SIGNIFICANT WEATHER AND/OR OBSTRUCTIONS TO VISIBILITY

IDZ012-014-291200-
SOUTHWEST IDAHO


CITY           SKY/WX    TMP DP  RH WIND       PRES   REMARKS
BOISE          CLEAR     58  42  55 CALM      30.09R
CALDWELL       CLEAR     51  44  77 NE3       30.08S
MOUNTAIN HOME  CLEAR     51  42  72 E10       30.09S
$$

IDZ016-017-291200-
SOUTHCENTRAL IDAHO


CITY           SKY/WX    TMP DP  RH WIND       PRES   REMARKS
BURLEY         CLEAR     47  43  86 S3        30.15S
JEROME         CLEAR     53  40  61 E7        30.16R
TWIN FALLS     CLEAR     51  41  68 VRB5      30.15R
$$

IDZ019>023-291200-
SOUTHEAST IDAHO


CITY           SKY/WX    TMP DP  RH WIND       PRES   REMARKS
IDAHO FALLS    CLEAR     44  41  89 N5        30.22S
POCATELLO      CLEAR     41  38  89 NW5       30.20R
REXBURG        CLEAR     45  39  79 E5        30.23R
$$

IDZ006-010-011-018-031-032-291200-
CENTRAL IDAHO MOUNTAINS


CITY           SKY/WX    TMP DP  RH WIND       PRES   REMARKS
MCCALL         CLEAR     44  37  76 NE3       30.20S
HAILEY         CLEAR     46  39  76 NW12      30.25S
STANLEY          N/A     31  28  89 CALM      30.32S
SALMON         CLEAR     45  37  76 CALM      30.22R
CHALLIS        CLEAR     46  36  68 CALM      30.25R
$$

IDZ002-004-006-007-026-291200-
NORTHERN IDAHO


CITY           SKY/WX    TMP DP  RH WIND       PRES   REMARKS
LEWISTON       CLEAR     58  48  69 SE6       30.05R
LOWELL           N/A     50  45  83 CALM      30.15R
COEUR D`ALENE  CLEAR     53  47  79 E7        30.10S
MULLAN PASS    CLEAR     52  36  54 SE8       30.26S
$$




USA.gov is the U.S. government's official web portal to all federal, state and local government web resources and services.